[Date Prev][Date Next][Thread Prev][Thread Next] - [Date Index][Thread Index][Author Index]
2 line ISS Keps 3-14 [ Updated ]
- Subject: [sarex] 2 line ISS Keps 3-14 [ Updated ]
- From: "Dave Larsen PhD" <doc@xxxxxxxxxxx>
- Date: Thu, 14 Mar 2002 05:51:26 -0800
ISS
1 25544U 98067A 02073.54589965 .00205464 00000-0 26785-2 0 1851
2 25544 51.6371 168.3751 0004241 259.5211 197.4300 15.57478377189277
----
Via the sarex mailing list at AMSAT.ORG courtesy of AMSAT-NA.
To unsubscribe, send "unsubscribe sarex" to Majordomo@amsat.org
AMSAT Home